| time (UTC) | temp C | wind direction | speed KPH | gust KPH | rain 1hr cm | rain 24hr cm | rain mn cm | humidity % | barometer mb |
| 20260502210003 | 12 | 316 | 4.8 | 8.0 | 0.13 | 0.18 | 0.18 | 89 | 1011.4 |
| 20260502204503 | 12 | 296 | 3.2 | 6.4 | 0.13 | 0.15 | 0.15 | 88 | 1011.6 |
| 20260502203003 | 13 | 273 | 4.8 | 6.4 | 0.10 | 0.13 | 0.13 | 87 | 1011.7 |
| 20260502201503 | 13 | 271 | 0.0 | 3.2 | 0.05 | 0.08 | 0.08 | 87 | 1011.9 |
| 20260502200024 | 13 | 268 | 3.2 | 6.4 | 0.05 | 0.05 | 0.05 | 86 | 1011.8 |
| 20260502194503 | 13 | 242 | 3.2 | 6.4 | 0.05 | 0.05 | 0.05 | 84 | 1012.0 |
| 20260502193003 | 14 | 173 | 1.6 | 4.8 | 0.03 | 0.03 | 0.03 | 83 | 1011.9 |
| 20260502191503 | 14 | 172 | 1.6 | 3.2 | 0.03 | 0.03 | 0.03 | 81 | 1011.9 |
| 20260502190003 | 15 | 171 | 1.6 | 4.8 | 0.03 | 0.03 | 0.03 | 79 | 1012.0 |
| 20260502184503 | 15 | 253 | 1.6 | 4.8 | 0.00 | 0.00 | 0.00 | 75 | 1012.1 |
| 20260502183003 | 15 | 287 | 3.2 | 6.4 | 0.00 | 0.00 | 0.00 | 71 | 1012.1 |
| 20260502181503 | 16 | 305 | 3.2 | 6.4 | 0.00 | 0.03 | 0.00 | 67 | 1012.1 |
| 20260502163003 | 17 | 214 | 1.6 | 8.0 | 0.00 | 0.20 | 0.00 | 61 | 1012.8 |
| 20260502161524 | 17 | 197 | 3.2 | 8.0 | 0.00 | 0.20 | 0.00 | 60 | 1012.8 |
| 20260502151503 | 17 | 151 | 3.2 | 8.0 | 0.00 | 0.20 | 0.00 | 58 | 1013.7 |
| 20260502123003 | 17 | 198 | 4.8 | 12.9 | 0.00 | 0.20 | 0.00 | 60 | 1015.2 |
| 20260502121503 | 16 | 252 | 4.8 | 12.9 | 0.00 | 0.20 | 0.00 | 65 | 1015.4 |
| 20260502114503 | 16 | 216 | 6.4 | 16.1 | 0.00 | 0.20 | 0.00 | 65 | 1016.0 |
| 20260502113003 | 16 | 200 | 6.4 | 16.1 | 0.00 | 0.20 | 0.00 | 67 | 1016.3 |
| 20260502111524 | 16 | 164 | 6.4 | 12.9 | 0.00 | 0.20 | 0.00 | 69 | 1016.4 |
| 20260502110024 | 15 | 176 | 4.8 | 11.3 | 0.00 | 0.20 | 0.00 | 72 | 1016.3 |
| 20260502104524 | 15 | 120 | 3.2 | 11.3 | 0.00 | 0.20 | 0.00 | 74 | 1016.4 |
| 20260502103024 | 14 | 256 | 3.2 | 6.4 | 0.00 | 0.20 | 0.00 | 76 | 1016.7 |
| 20260502101503 | 14 | 209 | 3.2 | 9.7 | 0.00 | 0.20 | 0.00 | 74 | 1016.4 |
| 20260502091503 | 13 | 290 | 1.6 | 8.0 | 0.00 | 0.20 | 0.00 | 80 | 1017.4 |
| 20260502071503 | 10 | 194 | 3.2 | 9.7 | 0.00 | 0.20 | 0.00 | 96 | 1017.5 |
| 20260502070003 | 9 | 204 | 1.6 | 3.2 | 0.00 | 0.20 | 0.00 | 96 | 1017.4 |
| 20260502064503 | 8 | 175 | 0.0 | 3.2 | 0.00 | 0.20 | 0.00 | 96 | 1017.5 |
| 20260502063024 | 7 | 151 | 0.0 | 3.2 | 0.00 | 0.20 | 0.00 | 96 | 1017.5 |
| 20260502061503 | 7 | 263 | 0.0 | 1.6 | 0.00 | 0.20 | 0.00 | 96 | 1017.5 |
| 20260502060003 | 7 | 311 | 0.0 | 3.2 | 0.00 | 0.20 | 0.00 | 95 | 1017.4 |
| 20260502054503 | 7 | 293 | 1.6 | 3.2 | 0.00 | 0.20 | 0.00 | 95 | 1017.3 |
| 20260502053003 | 7 | 24 | 0.0 | 3.2 | 0.00 | 0.20 | 0.00 | 96 | 1017.2 |
| 20260502051502 | 7 | 345 | 1.6 | 3.2 | 0.00 | 0.20 | 0.00 | 95 | 1017.3 |
| 20260502050003 | 7 | 243 | 1.6 | 4.8 | 0.00 | 0.20 | 0.00 | 95 | 1017.2 |
| 20260502044503 | 7 | 219 | 1.6 | 3.2 | 0.00 | 0.20 | 0.00 | 95 | 1017.3 |
| 20260502043003 | 7 | 210 | 1.6 | 4.8 | 0.00 | 0.20 | 0.00 | 95 | 1017.3 |
| 20260502041503 | 7 | 211 | 3.2 | 4.8 | 0.00 | 0.20 | 0.00 | 95 | 1017.3 |
| 20260502040003 | 7 | 210 | 3.2 | 4.8 | 0.00 | 0.20 | 0.00 | 95 | 1017.4 |
| 20260502034503 | 7 | 210 | 1.6 | 4.8 | 0.00 | 0.20 | 0.00 | 95 | 1017.5 |
| 20260502033003 | 7 | 211 | 1.6 | 6.4 | 0.00 | 0.20 | 0.00 | 95 | 1017.6 |
| 20260502031503 | 7 | 211 | 1.6 | 4.8 | 0.00 | 0.20 | 0.00 | 95 | 1017.6 |
| 20260502030024 | 7 | 211 | 1.6 | 6.4 | 0.00 | 0.20 | 0.00 | 95 | 1017.6 |
| 20260502024503 | 7 | 211 | 3.2 | 4.8 | 0.00 | 0.20 | 0.00 | 95 | 1017.6 |
| 20260502021503 | 8 | 211 | 1.6 | 4.8 | 0.00 | 0.20 | 0.00 | 95 | 1017.7 |
| 20260502020003 | 8 | 211 | 3.2 | 4.8 | 0.00 | 0.20 | 0.00 | 95 | 1017.9 |
| 20260502014524 | 8 | 211 | 1.6 | 6.4 | 0.00 | 0.20 | 0.00 | 95 | 1018.1 |
| 20260502013003 | 8 | 211 | 4.8 | 9.7 | 0.00 | 0.20 | 0.00 | 95 | 1018.2 |
| 20260502011503 | 8 | 213 | 6.4 | 9.7 | 0.00 | 0.20 | 0.00 | 95 | 1018.3 |
| 20260502010003 | 9 | 259 | 1.6 | 6.4 | 0.00 | 0.20 | 0.00 | 95 | 1018.4 |
| 20260502004524 | 9 | 259 | 3.2 | 6.4 | 0.00 | 0.20 | 0.00 | 95 | 1018.5 |
| 20260502003003 | 10 | 259 | 3.2 | 6.4 | 0.00 | 0.20 | 0.00 | 95 | 1018.7 |
| 20260502001503 | 10 | 259 | 3.2 | 6.4 | 0.00 | 0.20 | 0.00 | 95 | 1018.7 |
| 20260502000003 | 10 | 260 | 1.6 | 6.4 | 0.00 | 0.20 | 0.00 | 95 | 1018.8 |
| 20260501234503 | 10 | 260 | 3.2 | 4.8 | 0.00 | 0.20 | 0.00 | 94 | 1018.9 |
| 20260501233024 | 10 | 260 | 1.6 | 4.8 | 0.00 | 0.20 | 0.00 | 94 | 1018.9 |
| 20260501231503 | 11 | 260 | 1.6 | 3.2 | 0.00 | 0.20 | 0.00 | 94 | 1018.9 |
| 20260501230003 | 11 | 260 | 1.6 | 3.2 | 0.00 | 0.20 | 0.00 | 94 | 1018.9 |
| 20260501224524 | 11 | 260 | 0.0 | 1.6 | 0.00 | 0.20 | 0.20 | 94 | 1019.0 |
| 20260501223003 | 11 | 260 | 0.0 | 1.6 | 0.00 | 0.20 | 0.20 | 94 | 1018.8 |
| 20260501221503 | 11 | 260 | 0.0 | 1.6 | 0.00 | 0.20 | 0.20 | 94 | 1019.0 |
| 20260501220003 | 12 | 0 | 0.0 | 1.6 | 0.00 | 0.20 | 0.20 | 94 | 1019.0 |
| 20260501214503 | 12 | 260 | 0.0 | 1.6 | 0.00 | 0.20 | 0.20 | 94 | 1019.0 |
| 20260501213003 | 12 | 260 | 0.0 | 1.6 | 0.00 | 0.20 | 0.20 | 94 | 1018.8 |
| 20260501211524 | 13 | 260 | 1.6 | 3.2 | 0.00 | 0.20 | 0.20 | 93 | 1018.8 |